Location: Bryzozowice
(50.3667°N, 18.9667°E)
Time: 18:40:51
(UTC+00:00)

Cosmos 2219 Rocket - Pass Details

Date: 24 January 2020
Orbit: 827 x 848 km, 71.0° (Epoch: 24 February)

Event Time Altitude Azimuth Distance (km) Brightness Sun altitude
Rises 16:00:29 0° 326° (NW) 3,422 5.5 -6.2°
Reaches altitude 10° 16:03:03 10° 320° (NW) 2,481 4.9 -6.6°
Maximum altitude 16:08:20 41° 252° (WSW) 1,210 3.8 -7.4°
Drops below altitude 10° 16:13:35 10° 183° (S) 2,457 4.9 -8.2°
Sets 16:16:08 0° 177° (S) 3,384 5.6 -8.6°
